DELTA 1 DEB, 7170

Orbit data source: Space-Track

DELTA 1 DEB, 7170 is space debris in SSO originally from a launch on Tue, 06 Nov 1973 UTC launched from the Air Force Western Test Range (AFWTR). Debris objects in space refer to the collection of defunct objects orbiting the Earth. Examples of debris include non-operational satellites, rocket bodies, and fragments generated from explosions, collisions, or faulty payload assembly.

Loading next visibility...
Identifier
7170, 1973-086EJ
Orbit
SSO
Country
Flag of USUS
Related business
Manufacturer
Unknown
Mission
Spacecraft
Bus & Motor
Unknown
Mass
Unknown
Launch date (UTC)
1973-11-06 (52 years ago)
Launch vehicle
Unknown
Launch site
Air Force Western Test Range (AFWTR)
Object type
Payload
Rocket body
Debris
Shape & HBR
Unknown shape, 0.1 m
Radar Cross Section
Small (<0.1 m²)

Expand to show TLE details & history
Last TLE update: 7 hours ago

TLE from 7 hours ago
0 DELTA 1 DEB
1 07170U 73086EJ  25293.61148685  .00000873  00000-0  27317-2 0  9999
2 07170 101.6772 321.7502 0096103 287.2612 196.4758 13.06685329432864
Epoch: 2025-10-20T14:40Z
TLE epoch observation values (Epoch: 2025-10-20T14:40:32.463Z)
Latitude
54.91198°
Longitude
-90.67473°
Altitude
1,315.146 km
Speed
7.171 km/s
True Right ascension
10h 35m 05s
True Declination
54° 45' 42"
Sunlit
Object was in daylight at epoch
Visualization orbit readout
Latitude
Unknown
Longitude
Unknown
Altitude
Unknown
Speed
Unknown
Apparent Right ascension
Unknown
Apparent Declination
Unknown
Sunlit
N/A
Visualization observer readout
Local Sidereal Time
16:12:09
Azimuth
Unknown
Elevation
Unknown
Doppler factor
Unknown
Orbital elements
Apogee altitude
1,306.627 km
Perigee altitude
1,160.327 km
Semi-major axis
7,611.614 km
Eccentricity
0.00961
Inclination
101.6772°
RAAN
321.7502°
Arg. of periapsis
287.2612°
True anomaly
196.16703°
Mean anomaly
196.4758°
Eccentric anomaly
196.32106°
Mean motion
3.26835 °/min
Orbital period
110.15 mins
BSTAR
0.0027317
Loading maneuver chart data...
Computing Atmospheric mass density...

Documentation

Showing up to 5 results
|